Regional Weather Roundup
Issued by NWS Newport/Morehead, NC

Current Version | Previous Version | Graphics & Text | Print | Product List | Glossary Off
Versions: 1 2 3 4 5 6 7 8 9 10 11 12 13 14 15 16 17 18 19 20 21 22 23 24 25 26 27 28 29 30 31 32 33 34 35 36 37 38 39 40 41 42 43 44 45 46 47

000
ASUS42 KMHX 181627
RWRMHX
WEATHER ROUNDUP FOR EASTERN NORTH CAROLINA
NATIONAL WEATHER SERVICE NEWPORT/MOREHEAD CITY NC
1200 PM EDT FRI AUG 18 2017

NOTE: "FAIR" INDICATES FEW OR NO CLOUDS BELOW 12,000 FEET
WITH NO SIGNIFICANT WEATHER AND/OR OBSTRUCTIONS TO VISIBILITY

NCZ015>017-031-032-045>047-102-103-181700-
NORTH COAST

CITY           SKY/WX    TMP DP  RH WIND       PRES   REMARKS
EDENTON        SUNNY     90  81  74 CALM      29.93F HX 110
ELIZABETH CITY SUNNY     90  81  74 VRB7      29.93S HX 109
KITTY HAWK     SUNNY     89  76  65 CALM      29.93F HX 100
MANTEO         SUNNY     88  80  77 S13       29.94F HX 105

$$

NCZ045>047-081-094-103-104-181700-
CENTRAL COAST

CITY           SKY/WX    TMP DP  RH WIND       PRES   REMARKS
FRISCO         SUNNY     89  81  77 SW10      29.97S HX 108

$$

NCZ095-097-098-100-101-181700-
SOUTHERN COAST

CITY           SKY/WX    TMP DP  RH WIND       PRES   REMARKS
BEAUFORT       CLOUDY    88  84  88 SW16      29.96F HX 112
CEDAR ISLAND   NOT AVBL
JACKSONVILLE   MOSUNNY   92  81  70 SW6       29.94F HX 112
PINEY ISLAND   MOSUNNY  N/A N/A N/A S13       29.95F
WILMINGTON     SUNNY     92  78  63 SW10      29.95F HX 107


$$

NCZ011>013-027>030-043-044-078>080-089-090>093-098-181700-
COASTAL PLAIN

CITY           SKY/WX    TMP DP  RH WIND       PRES   REMARKS
AHOSKIE          N/A     86  80  83 S3        29.92F HX 100
CLINTON        MOSUNNY   90  78  68 SW6       29.94F HX 104
ELIZABETHTOWN  NOT AVBL
GOLDSBORO      SUNNY     88  85  91 SW6       29.92F HX 112
GREENVILLE     SUNNY     91  79  66 SW8       29.94F HX 107
HAVELOCK       MOSUNNY   91  78  65 S9        29.95F HX 106
KENANSVILLE    MOSUNNY   91  79  66 S3        29.94F HX 107
KINSTON        MOSUNNY   91  77  62 SW7       29.94F HX 105
NEW BERN       MOSUNNY   93  80  65 SW9       29.95F HX 112
RICHLANDS      MOSUNNY   92  79  65 VRB6      29.95F HX 108
ROCKY MOUNT    SUNNY     88  79  74 W8        29.92F HX 103
WASHINGTON     SUNNY     90  80  70 SW3       29.93F HX 107
WHITEVILLE     MOSUNNY   90  76  62 SW3       29.95F HX 102

$$

AMZ130-135-150-152-154-156-158-170-250-252-270-ANZ085-086-088-633-658-670-181700-
MARINE OBSERVATIONS

STATION/POSITION TIME  TEMP    WIND        PRES    WAVE   SWELL
                       AIR SEA DIR/SP/G            HT/PER HT/PER
                 (UTC) (F)     (DEG/KT/KT) (MB)    (FT/S) (FT/S)
CHESAPEAKE LIGHT NOT AVBL
64 E VA BEACH    1550   79 78  180/ 10/ 10 1014.8    2/ 8   2/ 8
DUCK             1600   86 74  180/  8/ 10 1013.3
2 E DUCK         1600      79                N/A     2/ 9
OREGON INLET     1600   84 84  180/ 12/ 14 1014.1
13E OREGON INLT  1548      81                N/A     3/ 4   2/10
HATTERAS CG      1600   86 84  210/ 11/ 14 1014.8
DIAMOND BUOY     1550   85 85  220/ 12/ 14 1015.0    2/ 5   2/ 8
CAPE LOOKOUT     1600   85     220/ 12/ 15 1014.3
BEAUFORT LAB     1600   86 82  220/  9/ 11 1014.0
30 SE NEW RVR IN 1608   83 84  220/ 14/ 17 1015.1
30 SE NEW RVR IN 1543      84                N/A     3/ 4
27 SE WRIGHTSVLE 1508   84 84  210/ 12/ 17 1015.1
5 SE WRIGHTSVLE  1608   85 84  200/ 12/ 17 1014.4
225 S CAPE HAT   1550   84 85  240/ 10/ 12 1017.5    3/ 5   2/ 8
41 SE CHARLESTON 1610   84 85  230/ 10/ 14 1015.4

$$




USA.gov is the U.S. government's official web portal to all federal, state and local government web resources and services.